When you browse on this site, cookies collect data to enhance your experience and personalize the content and advertising you see.
Visit our Privacy Policy to learn more. By continuing to use the site, you agree to this use of cookies and data.
  • In Österreich
  • Länderverzeichnis
  • Für 7 Tage
  • Wassertemperatur
  • Satellitenkarten
  • Wetterkarte
  • News
  • Widgets
  • user-avatar
    Anmelden

    Stündliche Wetter Canberra

    Heute, 24 März, Sonntag

    Zeit Temperatur Niederschläge Wind Luftdruck Luftfeuchtigkeit
    00:00 +20°C° 0 mm 1 m/S 707 mmHg 71%
    01:00 +20°C° 0 mm 1 m/S 706 mmHg 70%
    02:00 +20°C° 0 mm 1 m/S 706 mmHg 70%
    03:00 +20°C° 0 mm 1 m/S 706 mmHg 70%
    04:00 +20°C° 0 mm 1 m/S 706 mmHg 68%
    05:00 +20°C° 0 mm 1 m/S 707 mmHg 69%
    06:00 +20°C° 0 mm 1 m/S 707 mmHg 69%
    07:00 +20°C° 0 mm 1 m/S 707 mmHg 70%
    08:00 +21°C° 0 mm 3 m/S 708 mmHg 64%
    09:00 +23°C° 0 mm 4 m/S 708 mmHg 57%
    10:00 +22°C° 0 mm 3 m/S 709 mmHg 69%
    11:00 +23°C° 0.1 mm 4 m/S 708 mmHg 63%
    12:00 +25°C° 0.1 mm 5 m/S 708 mmHg 57%
    13:00 +27°C° 0.1 mm 6 m/S 708 mmHg 51%
    14:00 +26°C° 0 mm 6 m/S 707 mmHg 52%
    15:00 +26°C° 0 mm 6 m/S 707 mmHg 52%
    16:00 +25°C° 0 mm 4 m/S 706 mmHg 56%
    17:00 +23°C° 0.2 mm 4 m/S 706 mmHg 63%
    18:00 +22°C° 0.2 mm 4 m/S 706 mmHg 70%
    19:00 +20°C° 0.2 mm 4 m/S 706 mmHg 77%
    20:00 +20°C° 0.1 mm 5 m/S 706 mmHg 79%
    21:00 +19°C° 0.1 mm 5 m/S 706 mmHg 80%
    22:00 +19°C° 0 mm 5 m/S 706 mmHg 82%
    23:00 +19°C° 0 mm 6 m/S 705 mmHg 81%

    Morgen, 25 März, Montag

    Zeit Temperatur Niederschläge Wind Luftdruck Luftfeuchtigkeit
    00:00 +19°C° 0 mm 6 m/S 705 mmHg 80%
    01:00 +18°C° 0 mm 7 m/S 705 mmHg 79%
    02:00 +18°C° 0 mm 7 m/S 704 mmHg 78%
    03:00 +20°C° 0 mm 7 m/S 704 mmHg 76%
    04:00 +20°C° 0 mm 8 m/S 704 mmHg 75%
    05:00 +20°C° 0 mm 7 m/S 704 mmHg 77%
    06:00 +18°C° 0 mm 7 m/S 704 mmHg 80%
    07:00 +19°C° 0 mm 6 m/S 703 mmHg 82%
    08:00 +19°C° 0.2 mm 6 m/S 703 mmHg 83%
    09:00 +18°C° 0.2 mm 7 m/S 703 mmHg 83%
    10:00 +20°C° 0.2 mm 7 m/S 703 mmHg 84%
    11:00 +19°C° 0.7 mm 6 m/S 703 mmHg 86%
    12:00 +19°C° 0.7 mm 6 m/S 703 mmHg 88%
    13:00 +19°C° 0.7 mm 6 m/S 703 mmHg 90%
    14:00 +17°C° 0.7 mm 6 m/S 703 mmHg 84%
    15:00 +17°C° 0.7 mm 7 m/S 703 mmHg 78%
    16:00 +17°C° 0.7 mm 7 m/S 703 mmHg 73%
    17:00 +16°C° 0 mm 7 m/S 704 mmHg 68%
    18:00 +15°C° 0 mm 6 m/S 705 mmHg 63%
    19:00 +14°C° 0 mm 5 m/S 705 mmHg 58%
    20:00 +13°C° 0 mm 4 m/S 706 mmHg 58%
    21:00 +12°C° 0 mm 4 m/S 706 mmHg 59%
    22:00 +11°C° 0 mm 3 m/S 707 mmHg 59%
    23:00 +10°C° 0 mm 3 m/S 707 mmHg 59%

    übermorgen, 26 März, Dienstag

    Zeit Temperatur Niederschläge Wind Luftdruck Luftfeuchtigkeit
    00:00 +10°C° 0 mm 3 m/S 708 mmHg 58%
    01:00 +9°C° 0 mm 3 m/S 708 mmHg 58%
    02:00 +8°C° 0 mm 3 m/S 708 mmHg 58%
    03:00 +8°C° 0 mm 3 m/S 708 mmHg 59%
    04:00 +7°C° 0 mm 2 m/S 708 mmHg 59%
    05:00 +7°C° 0 mm 2 m/S 709 mmHg 59%
    06:00 +7°C° 0 mm 2 m/S 709 mmHg 58%
    07:00 +8°C° 0 mm 1 m/S 710 mmHg 58%
    08:00 +10°C° 0 mm 2 m/S 710 mmHg 50%
    09:00 +13°C° 0 mm 2 m/S 711 mmHg 41%
    10:00 +16°C° 0 mm 3 m/S 712 mmHg 32%
    11:00 +18°C° 0 mm 3 m/S 712 mmHg 30%
    12:00 +19°C° 0 mm 3 m/S 712 mmHg 28%
    13:00 +21°C° 0 mm 3 m/S 711 mmHg 26%
    14:00 +21°C° 0 mm 3 m/S 711 mmHg 26%
    15:00 +21°C° 0 mm 2 m/S 711 mmHg 26%
    16:00 +23°C° 0 mm 2 m/S 711 mmHg 26%
    17:00 +19°C° 0 mm 2 m/S 711 mmHg 36%
    18:00 +16°C° 0 mm 2 m/S 712 mmHg 45%
    19:00 +14°C° 0 mm 2 m/S 712 mmHg 54%
    20:00 +13°C° 0 mm 2 m/S 713 mmHg 58%
    21:00 +12°C° 0 mm 2 m/S 714 mmHg 62%
    22:00 +10°C° 0 mm 2 m/S 714 mmHg 66%
    23:00 +10°C° 0 mm 2 m/S 714 mmHg 68%

    27 März, Mittwoch

    Zeit Temperatur Niederschläge Wind Luftdruck Luftfeuchtigkeit
    00:00 +10°C° 0 mm 1 m/S 714 mmHg 71%
    01:00 +10°C° 0 mm 1 m/S 714 mmHg 73%
    02:00 +9°C° 0 mm 1 m/S 714 mmHg 76%
    03:00 +9°C° 0 mm 1 m/S 714 mmHg 78%
    04:00 +9°C° 0 mm 1 m/S 714 mmHg 81%
    05:00 +9°C° 0 mm 1 m/S 714 mmHg 82%
    06:00 +10°C° 0 mm 1 m/S 714 mmHg 83%
    07:00 +10°C° 0 mm 1 m/S 715 mmHg 85%
    08:00 +12°C° 0 mm 2 m/S 715 mmHg 77%
    09:00 +15°C° 0 mm 2 m/S 715 mmHg 70%
    10:00 +17°C° 0 mm 3 m/S 715 mmHg 62%
    11:00 +18°C° 0 mm 3 m/S 715 mmHg 58%
    12:00 +19°C° 0 mm 3 m/S 715 mmHg 53%
    13:00 +21°C° 0 mm 3 m/S 714 mmHg 49%
    14:00 +20°C° 0 mm 3 m/S 714 mmHg 51%
    15:00 +20°C° 0 mm 3 m/S 713 mmHg 53%
    16:00 +20°C° 0 mm 4 m/S 713 mmHg 55%
    17:00 +18°C° 0 mm 3 m/S 713 mmHg 65%
    18:00 +16°C° 0 mm 3 m/S 713 mmHg 74%
    19:00 +13°C° 0 mm 3 m/S 713 mmHg 84%
    20:00 +13°C° 0 mm 2 m/S 713 mmHg 88%
    21:00 +13°C° 0 mm 2 m/S 713 mmHg 91%
    22:00 +12°C° 0 mm 2 m/S 714 mmHg 95%
    23:00 +13°C° 0 mm 2 m/S 713 mmHg 94%

    28 März, Donnerstag

    Zeit Temperatur Niederschläge Wind Luftdruck Luftfeuchtigkeit
    00:00 +13°C° 0 mm 1 m/S 713 mmHg 93%
    01:00 +13°C° 0 mm 1 m/S 712 mmHg 93%
    02:00 +12°C° 0 mm 1 m/S 712 mmHg 94%
    03:00 +12°C° 0 mm 1 m/S 712 mmHg 95%
    04:00 +11°C° 0 mm 1 m/S 711 mmHg 97%
    05:00 +12°C° 0 mm 1 m/S 711 mmHg 95%
    06:00 +13°C° 0 mm 1 m/S 712 mmHg 94%
    07:00 +13°C° 0 mm 1 m/S 712 mmHg 92%
    08:00 +14°C° 0 mm 1 m/S 712 mmHg 89%
    09:00 +15°C° 0 mm 1 m/S 712 mmHg 85%
    10:00 +16°C° 0 mm 1 m/S 712 mmHg 82%
    11:00 +19°C° 0 mm 1 m/S 712 mmHg 79%
    12:00 +20°C° 0 mm 1 m/S 711 mmHg 75%
    13:00 +21°C° 0 mm 1 m/S 711 mmHg 71%
    14:00 +21°C° 0.1 mm 1 m/S 710 mmHg 71%
    15:00 +21°C° 0.1 mm 2 m/S 710 mmHg 70%
    16:00 +21°C° 0.1 mm 2 m/S 709 mmHg 69%
    17:00 +21°C° 0.1 mm 1 m/S 709 mmHg 77%
    18:00 +19°C° 0.1 mm 1 m/S 709 mmHg 84%
    19:00 +18°C° 0.1 mm 1 m/S 709 mmHg 91%
    20:00 +18°C° 0 mm 1 m/S 709 mmHg 92%
    21:00 +18°C° 0 mm 1 m/S 709 mmHg 93%
    22:00 +18°C° 0 mm 1 m/S 709 mmHg 94%
    23:00 +16°C° 0.1 mm 1 m/S 709 mmHg 95%

    29 März, Freitag

    Zeit Temperatur Niederschläge Wind Luftdruck Luftfeuchtigkeit
    00:00 +16°C° 0.1 mm 1 m/S 708 mmHg 96%
    01:00 +15°C° 0.1 mm 0 m/S 708 mmHg 97%
    02:00 +15°C° 0.1 mm 0 m/S 707 mmHg 97%
    03:00 +16°C° 0.1 mm 1 m/S 707 mmHg 97%
    04:00 +16°C° 0.1 mm 1 m/S 707 mmHg 96%
    05:00 +16°C° 0.1 mm 1 m/S 707 mmHg 96%
    06:00 +16°C° 0.1 mm 1 m/S 707 mmHg 96%
    07:00 +18°C° 0.1 mm 1 m/S 707 mmHg 96%
    08:00 +19°C° 0 mm 1 m/S 707 mmHg 89%
    09:00 +20°C° 0 mm 2 m/S 707 mmHg 82%
    10:00 +21°C° 0 mm 3 m/S 707 mmHg 75%
    11:00 +20°C° 1.5 mm 3 m/S 706 mmHg 79%
    12:00 +20°C° 1.5 mm 3 m/S 705 mmHg 83%
    13:00 +19°C° 1.5 mm 3 m/S 704 mmHg 88%
    14:00 +19°C° 1 mm 3 m/S 704 mmHg 86%
    15:00 +19°C° 1 mm 3 m/S 703 mmHg 83%
    16:00 +19°C° 1 mm 3 m/S 703 mmHg 81%
    17:00 +18°C° 0.5 mm 3 m/S 703 mmHg 86%
    18:00 +17°C° 0.5 mm 2 m/S 703 mmHg 90%
    19:00 +16°C° 0.5 mm 1 m/S 703 mmHg 95%
    20:00 +15°C° 0 mm 1 m/S 704 mmHg 94%
    21:00 +15°C° 0 mm 1 m/S 704 mmHg 93%
    22:00 +14°C° 0 mm 1 m/S 704 mmHg 93%
    23:00 +14°C° 0 mm 1 m/S 704 mmHg 91%
    Mehr zeigen